Big Rapids, MI

11:42 AM EST on December 06, 2019 (GMT -0500)
Roben-Hood

Weather History for KRQB - August, 2019

Change the Weather History Date:

Tuesday, August 13, 2019

  Actual Average Record
Temperature  
Mean Temperature 72 °F -  
Max Temperature 81 °F 81 °F 92 °F (1988)
Min Temperature 62 °F 54 °F 44 °F (1982)
Cooling Degree Days 6    
Growing Degree Days 22 (Base 50)    
Moisture  
Dew Point 52 °F    
Average Humidity 56    
Maximum Humidity 88    
Minimum Humidity 22    
Precipitation  
Precipitation 0.00 in - - ()
Sea Level Pressure  
Sea Level Pressure 29.87 in    
Wind  
Wind Speed 4 mph (NNE)    
Max Wind Speed 9 mph    
Max Gust Speed -    
Visibility 10 miles    
Events      
Averages and records for this station are not official NWS values.
T = Trace of Precipitation, MM = Missing Value Source: NWS Daily Summary

Daily Weather History Graph

Daily Weather History Graph

Search for Another Location

Airport or City:

Astronomy

Aug. 13, 2019 Rise Set
Actual Time 6:43 AM EDT 8:49 PM EDT
Civil Twilight 6:12 AM EDT 9:20 PM EDT
Nautical Twilight 5:33 AM EDT 9:58 PM EDT
Astronomical Twilight 4:51 AM EDT 10:40 PM EDT
Moon 8:06 PM EDT (8/13) 4:40 AM EDT (8/13)
Length of Visible Light 15h 07m
Length of Day
14h 05m
Waxing Gibbous, 97% of the Moon is Illuminated
Aug 13
Waxing Gibbous
Aug 15
Full
Aug 23
Last Quarter
Aug 30
New
Sep 5
First Quarter

Hourly Weather History & Observations

Time (EDT) Temp. Dew Point Humidity Pressure Visibility Wind Dir Wind Speed Gust Speed Precip Events Conditions
12:15 AM 68.9 °F 63.1 °F 82% 29.84 in 10.0 mi North 5.8 mph - N/A   Clear
12:16 AM 68.9 °F 63.0 °F 81% 29.84 in 10.0 mi NNW 3.5 mph - N/A   Clear
12:38 AM 68.0 °F 62.6 °F 83% 29.84 in 10.0 mi NNE 9.2 mph - N/A   Scattered Clouds
12:56 AM 67.1 °F 61.9 °F 83% 29.84 in 10.0 mi Calm Calm - N/A   Scattered Clouds
1:15 AM 66.6 °F 61.5 °F 84% 29.85 in 10.0 mi Calm Calm - N/A   Clear
1:16 AM 66.4 °F 61.5 °F 84% 29.85 in 10.0 mi Calm Calm - N/A   Clear
1:35 AM 67.1 °F 60.8 °F 80% 29.85 in 10.0 mi NNE 5.8 mph - N/A   Scattered Clouds
1:59 AM 66.6 °F 60.8 °F 82% 29.84 in 10.0 mi Calm Calm - N/A   Clear
2:17 AM 66.0 °F 61.2 °F 84% 29.84 in 10.0 mi NNE 6.9 mph - N/A   Clear
2:35 AM 66.4 °F 61.7 °F 85% 29.84 in 10.0 mi NNE 5.8 mph - N/A   Clear
2:36 AM 66.4 °F 61.7 °F 85% 29.84 in 10.0 mi North 4.6 mph - N/A   Clear
2:55 AM 65.5 °F 61.5 °F 87% 29.83 in 10.0 mi NNE 8.1 mph - N/A   Clear
3:18 AM 65.5 °F 61.7 °F 88% 29.84 in 10.0 mi NNE 3.5 mph - N/A   Clear
3:35 AM 65.5 °F 61.7 °F 88% 29.83 in 10.0 mi North 3.5 mph - N/A   Clear
3:55 AM 65.5 °F 61.3 °F 86% 29.83 in 10.0 mi North 3.5 mph - N/A   Mostly Cloudy
3:56 AM 65.3 °F 61.3 °F 87% 29.83 in 10.0 mi North 3.5 mph - N/A   Mostly Cloudy
4:15 AM 64.8 °F 61.0 °F 88% 29.83 in 10.0 mi North 3.5 mph - N/A   Overcast
4:16 AM 64.6 °F 61.0 °F 88% 29.83 in 10.0 mi North 3.5 mph - N/A   Overcast
4:39 AM 64.8 °F 61.0 °F 88% 29.83 in 10.0 mi North 4.6 mph - N/A   Overcast
4:57 AM 64.9 °F 60.3 °F 85% 29.83 in 10.0 mi North 3.5 mph - N/A   Overcast
5:15 AM 64.9 °F 59.9 °F 84% 29.83 in 10.0 mi NNE 3.5 mph - N/A   Overcast
5:35 AM 64.6 °F 59.0 °F 82% 29.83 in 10.0 mi NNW 4.6 mph - N/A   Overcast
5:36 AM 64.4 °F 59.0 °F 83% 29.83 in 10.0 mi NNW 4.6 mph - N/A   Overcast
5:55 AM 64.4 °F 58.6 °F 82% 29.83 in 10.0 mi NNE 3.5 mph - N/A   Overcast
6:17 AM 63.7 °F 58.1 °F 82% 29.84 in 10.0 mi NW 4.6 mph - N/A   Scattered Clouds
6:35 AM 63.1 °F 57.2 °F 81% 29.84 in 10.0 mi NW 3.5 mph - N/A   Clear
6:36 AM 63.1 °F 57.0 °F 80% 29.84 in 10.0 mi NNW 3.5 mph - N/A   Clear
6:55 AM 63.0 °F 56.3 °F 79% 29.85 in 10.0 mi WNW 5.8 mph - N/A   Scattered Clouds
7:15 AM 63.1 °F 56.1 °F 78% 29.85 in 10.0 mi Calm Calm - N/A   Mostly Cloudy
7:20 AM 63.5 °F 55.8 °F 76% 29.85 in 10.0 mi Calm Calm - N/A   Mostly Cloudy
7:38 AM 62.8 °F 56.5 °F 80% 29.86 in 10.0 mi NW 4.6 mph - N/A   Scattered Clouds
7:56 AM 63.5 °F 56.1 °F 77% 29.86 in 10.0 mi NW 3.5 mph - N/A   Mostly Cloudy
8:15 AM 63.7 °F 55.2 °F 74% 29.87 in 10.0 mi Calm Calm - N/A   Overcast
8:35 AM 64.2 °F 54.9 °F 72% 29.87 in 10.0 mi WNW 4.6 mph - N/A   Overcast
8:36 AM 64.4 °F 54.5 °F 70% 29.87 in 10.0 mi West 3.5 mph - N/A   Overcast
8:59 AM 66.2 °F 54.3 °F 65% 29.87 in 10.0 mi West 4.6 mph - N/A   Scattered Clouds
9:17 AM 67.8 °F 53.2 °F 60% 29.87 in 10.0 mi East 3.5 mph - N/A   Clear
9:35 AM 69.1 °F 51.6 °F 54% 29.87 in 10.0 mi NW 4.6 mph - N/A   Clear
9:36 AM 69.3 °F 51.6 °F 53% 29.87 in 10.0 mi NNW 4.6 mph - N/A   Clear
9:55 AM 70.7 °F 50.7 °F 49% 29.87 in 10.0 mi NE 4.6 mph - N/A   Clear
10:15 AM 72.1 °F 50.4 °F 46% 29.87 in 10.0 mi NNE 5.8 mph - N/A   Clear
10:19 AM 71.8 °F 49.3 °F 45% 29.87 in 10.0 mi NNE 5.8 mph - N/A   Clear
10:37 AM 72.5 °F 46.9 °F 40% 29.87 in 10.0 mi ENE 4.6 mph - N/A   Clear
10:55 AM 74.1 °F 46.0 °F 37% 29.87 in 10.0 mi ENE 5.8 mph - N/A   Clear
10:56 AM 74.1 °F 45.3 °F 36% 29.87 in 10.0 mi ENE 4.6 mph - N/A   Clear
11:15 AM 74.7 °F 43.3 °F 33% 29.88 in 10.0 mi NE 4.6 mph - N/A   Clear
11:35 AM 74.8 °F 44.8 °F 34% 29.88 in 10.0 mi Calm Calm - N/A   Scattered Clouds
11:40 AM 74.7 °F 44.6 °F 34% 29.88 in 10.0 mi ENE 3.5 mph - N/A   Scattered Clouds
11:58 AM 75.0 °F 43.9 °F 33% 29.88 in 10.0 mi NE 3.5 mph - N/A   Scattered Clouds
12:16 PM 75.4 °F 46.2 °F 35% 29.87 in 10.0 mi Calm Calm - N/A   Clear
12:35 PM 75.4 °F 47.1 °F 37% 29.88 in 10.0 mi NE 4.6 mph - N/A   Clear
12:36 PM 75.6 °F 47.3 °F 37% 29.87 in 10.0 mi Calm Calm - N/A   Clear
12:55 PM 76.1 °F 40.8 °F 28% 29.87 in 10.0 mi North 4.6 mph - N/A   Clear
1:19 PM 77.0 °F 39.4 °F 26% 29.87 in 10.0 mi NNE 4.6 mph - N/A   Clear
1:37 PM 77.7 °F 41.7 °F 28% 29.87 in 10.0 mi NW 5.8 mph - N/A   Scattered Clouds
1:55 PM 79.3 °F 40.6 °F 25% 29.88 in 10.0 mi Calm Calm - N/A   Clear
1:56 PM 79.2 °F 39.6 °F 24% 29.87 in 10.0 mi Calm Calm - N/A   Clear
2:15 PM 79.0 °F 36.7 °F 22% 29.87 in 10.0 mi Calm Calm - N/A   Clear
2:39 PM 80.2 °F 42.1 °F 26% 29.87 in 10.0 mi NNW 5.8 mph - N/A   Scattered Clouds
2:57 PM 79.9 °F 37.6 °F 22% 29.86 in 10.0 mi NNE 3.5 mph - N/A   Clear
3:15 PM 81.0 °F 43.0 °F 26% 29.85 in 10.0 mi ENE 3.5 mph - N/A   Clear
3:16 PM 80.8 °F 43.7 °F 27% 29.85 in 10.0 mi ENE 3.5 mph - N/A   Clear
3:35 PM 79.9 °F 43.5 °F 28% 29.86 in 10.0 mi NNE 8.1 mph - N/A   Scattered Clouds
3:55 PM 80.6 °F 41.4 °F 25% 29.86 in 10.0 mi NNE 6.9 mph - N/A   Scattered Clouds
4:00 PM 80.6 °F 41.9 °F 25% 29.86 in 10.0 mi NNE 4.6 mph - N/A   Scattered Clouds
4:18 PM 80.2 °F 45.1 °F 29% 29.86 in 10.0 mi NNE 9.2 mph - N/A   Clear
4:35 PM 80.2 °F 44.6 °F 28% 29.86 in 10.0 mi North 5.8 mph - N/A   Clear
4:55 PM 79.3 °F 42.4 °F 27% 29.87 in 10.0 mi NNW 4.6 mph - N/A   Scattered Clouds
4:56 PM 79.3 °F 42.6 °F 27% 29.87 in 10.0 mi NNW 4.6 mph - N/A   Scattered Clouds
5:19 PM 79.0 °F 49.5 °F 35% 29.87 in 10.0 mi North 9.2 mph - N/A   Mostly Cloudy
5:37 PM 79.3 °F 50.0 °F 36% 29.87 in 10.0 mi North 8.1 mph - N/A   Scattered Clouds
5:55 PM 79.3 °F 47.5 °F 33% 29.87 in 10.0 mi North 3.5 mph - N/A   Clear
6:15 PM 79.7 °F 41.7 °F 26% 29.87 in 10.0 mi North 3.5 mph - N/A   Clear
6:16 PM 79.7 °F 41.2 °F 25% 29.87 in 10.0 mi North 4.6 mph - N/A   Clear
6:35 PM 78.4 °F 45.1 °F 31% 29.88 in 10.0 mi North 3.5 mph - N/A   Clear
6:58 PM 77.7 °F 51.1 °F 39% 29.88 in 10.0 mi Calm Calm - N/A   Clear
7:16 PM 77.9 °F 49.3 °F 37% 29.88 in 10.0 mi NE 3.5 mph - N/A   Clear
7:35 PM 78.1 °F 50.0 °F 37% 29.88 in 10.0 mi NNE 4.6 mph - N/A   Scattered Clouds
7:55 PM 76.3 °F 54.3 °F 46% 29.88 in 10.0 mi Calm Calm - N/A   Scattered Clouds
8:00 PM 75.9 °F 54.0 °F 46% 29.88 in 10.0 mi Calm Calm - N/A   Mostly Cloudy
8:18 PM 75.2 °F 53.1 °F 46% 29.89 in 10.0 mi NNE 4.6 mph - N/A   Overcast
8:36 PM 73.6 °F 54.7 °F 51% 29.89 in 10.0 mi Calm Calm - N/A   Overcast
8:55 PM 72.5 °F 55.8 °F 56% 29.89 in 10.0 mi NNE 8.1 mph - N/A   Overcast
9:15 PM 72.3 °F 56.3 °F 57% 29.90 in 10.0 mi NNE 8.1 mph - N/A   Overcast
9:16 PM 72.1 °F 56.3 °F 57% 29.90 in 10.0 mi NNE 8.1 mph - N/A   Overcast
9:39 PM 71.6 °F 56.8 °F 60% 29.91 in 10.0 mi NNE 8.1 mph - N/A   Overcast
9:57 PM 71.1 °F 57.4 °F 62% 29.92 in 10.0 mi NNE 9.2 mph - N/A   Overcast
10:15 PM 71.1 °F 57.2 °F 61% 29.92 in 10.0 mi NNE 8.1 mph - N/A   Overcast
10:35 PM 71.1 °F 56.5 °F 60% 29.92 in 10.0 mi NE 3.5 mph - N/A   Overcast
10:36 PM 71.1 °F 56.5 °F 60% 29.92 in 10.0 mi NE 3.5 mph - N/A   Overcast
10:55 PM 70.7 °F 56.3 °F 60% 29.93 in 10.0 mi NE 3.5 mph - N/A   Overcast
11:18 PM 70.3 °F 56.3 °F 61% 29.93 in 10.0 mi Calm Calm - N/A   Overcast
11:36 PM 70.2 °F 55.0 °F 59% 29.94 in 10.0 mi East 6.9 mph - N/A   Overcast
11:55 PM 69.8 °F 52.9 °F 55% 29.94 in 10.0 mi East 6.9 mph - N/A   Overcast
11:56 PM 69.8 °F 52.7 °F 54% 29.94 in 10.0 mi East 6.9 mph - N/A   Overcast